Leesburg, FL

1:01 PM EDT on April 28, 2017 (GMT -0400)
Leesburg Regional

Weather History for KLEE - June, 2012

Change the Weather History Date:

Friday, June 1, 2012

  Actual Average Record
Temperature  
Mean Temperature 75 °F -  
Max Temperature 80 °F 88 °F 97 °F (2004)
Min Temperature 71 °F 68 °F 53 °F (1984)
Cooling Degree Days 10    
Growing Degree Days 25 (Base 50)    
Moisture  
Dew Point 72 °F    
Average Humidity 91    
Maximum Humidity 100    
Minimum Humidity 77    
Precipitation  
Precipitation 0.32 in - - ()
Sea Level Pressure  
Sea Level Pressure 29.92 in    
Wind  
Wind Speed 5 mph (SSW)    
Max Wind Speed 12 mph    
Max Gust Speed -    
Visibility 9 miles    
Events Rain    
Averages and records for this station are not official NWS values.
T = Trace of Precipitation, MM = Missing Value Source: NWS Daily Summary

Daily Weather History Graph

Daily Weather History Graph

Search for Another Location

Airport or City:

Trip Planner

Search our weather history database for the weather conditions in past years. The results will help you decide how hot, cold, wet, or windy it might be!

Date:

Astronomy

Jun. 01, 2012 Rise Set
Actual Time 6:29 AM EDT 8:21 PM EDT
Civil Twilight 6:02 AM EDT 8:48 PM EDT
Nautical Twilight 5:30 AM EDT 9:20 PM EDT
Astronomical Twilight 4:56 AM EDT 9:54 PM EDT
Moon 5:30 PM EDT (6/1) 3:51 AM EDT (6/1)
Length of Visible Light 14h 45m
Length of Day
13h 52m
Waxing Gibbous, 89% of the Moon is Illuminated
Jun 1
Waxing Gibbous
Jun 4
Full
Jun 11
Last Quarter
Jun 19
New
Jun 26
First Quarter

Hourly Weather History & Observations

Time (EDT) Temp. Dew Point Humidity Pressure Visibility Wind Dir Wind Speed Gust Speed Precip Events Conditions
12:53 AM 75.0 °F 73.0 °F 94% 29.95 in 10.0 mi SSW 3.5 mph - N/A   Partly Cloudy
1:53 AM 75.9 °F 73.0 °F 91% 29.94 in 10.0 mi SSW 3.5 mph - N/A   Scattered Clouds
2:53 AM 75.9 °F 73.0 °F 91% 29.92 in 9.0 mi SW 3.5 mph - 0.00 in Rain Light Rain
3:17 AM 75.2 °F 73.4 °F 94% 29.92 in 10.0 mi SW 6.9 mph - 0.00 in   Mostly Cloudy
3:31 AM 75.2 °F 73.4 °F 94% 29.91 in 10.0 mi WSW 5.8 mph - 0.00 in   Scattered Clouds
3:53 AM 75.0 °F 72.0 °F 90% 29.91 in 10.0 mi WSW 4.6 mph - 0.00 in   Partly Cloudy
5:53 AM 73.0 °F 70.0 °F 90% 29.91 in 10.0 mi SSW 4.6 mph - N/A   Clear
6:53 AM 73.0 °F 71.1 °F 93% 29.94 in 9.0 mi West 4.6 mph - 0.01 in Rain Light Rain
7:26 AM 71.6 °F 71.6 °F 100% 29.95 in 2.0 mi WSW 5.8 mph - 0.08 in Rain Heavy Rain
7:39 AM 71.6 °F 71.6 °F 100% 29.95 in 3.0 mi West 4.6 mph - 0.12 in Rain Rain
7:53 AM 72.0 °F 71.1 °F 97% 29.95 in 5.0 mi WNW 4.6 mph - 0.14 in Rain Light Rain
8:53 AM 73.0 °F 72.0 °F 96% 29.96 in 10.0 mi SW 4.6 mph - 0.05 in Rain Light Rain
9:11 AM 73.4 °F 71.6 °F 94% 29.96 in 1.8 mi WSW 3.5 mph - 0.03 in Rain Rain
9:14 AM 73.4 °F 71.6 °F 94% 29.96 in 3.0 mi Calm Calm - 0.03 in Rain Light Rain
9:53 AM 75.0 °F 72.0 °F 90% 29.96 in 10.0 mi South 6.9 mph - 0.03 in Rain Light Rain
10:53 AM 73.0 °F 72.0 °F 96% 29.96 in 5.0 mi SSW 9.2 mph - 0.02 in Rain Light Rain
12:43 PM 73.4 °F 71.6 °F 94% 29.95 in 9.0 mi South 9.2 mph - 0.07 in Rain Light Rain
12:53 PM 73.9 °F 72.0 °F 93% 29.94 in 10.0 mi SSW 11.5 mph - 0.07 in Rain Light Rain
1:28 PM 75.2 °F 71.6 °F 89% 29.94 in 10.0 mi SSW 9.2 mph - 0.00 in   Overcast
2:00 PM 75.2 °F 71.6 °F 89% 29.94 in 10.0 mi South 10.4 mph - N/A   Mostly Cloudy
2:53 PM 79.0 °F 71.1 °F 77% 29.91 in 10.0 mi South 5.8 mph - N/A   Clear
3:53 PM 79.0 °F 71.1 °F 77% 29.88 in 10.0 mi South 6.9 mph - N/A   Partly Cloudy
4:53 PM 79.0 °F 72.0 °F 79% 29.87 in 10.0 mi South 8.1 mph - N/A   Scattered Clouds
6:53 PM 75.0 °F 71.1 °F 87% 29.87 in 10.0 mi South 9.2 mph - N/A   Partly Cloudy
7:53 PM 75.0 °F 71.1 °F 87% 29.86 in 10.0 mi South 6.9 mph - N/A   Clear
8:53 PM 73.9 °F 71.1 °F 91% 29.86 in 10.0 mi South 5.8 mph - N/A   Clear
9:53 PM 73.9 °F 71.1 °F 91% 29.87 in 10.0 mi SSW 6.9 mph - N/A   Clear
10:53 PM 73.0 °F 71.1 °F 93% 29.89 in 10.0 mi SSW 8.1 mph - N/A   Clear
11:30 PM 73.4 °F 71.6 °F 94% 29.91 in 10.0 mi SSW 8.1 mph - N/A   Partly Cloudy
11:53 PM 73.0 °F 72.0 °F 96% 29.91 in 10.0 mi SSW 5.8 mph - N/A   Scattered Clouds